User: anonymous
Location: Saddleback Butte
(34.6776°N, 117.8050°W)
Time: 03:07:52
(UTC-07:00)
Language:

Cosmos 1862 Rocket - Orbit

View from above orbital plane
View from above orbital plane
View from above satellite
View from above satellite

Ground track
Ground track

The orbit data is extracted from the following two-line orbital elements,

1 18153U 87055B   14232.44370318  .00000218  00000-0  24068-4 0  4186
2 18153 082.5038 352.8631 0020804 238.3811 185.9145 14.82648969465458
Epoch (UTC): 20 August 2014 10:38:55
Eccentricity: 0.0020804
inclination: 82.5038°
perigee height: 606 km
apogee height: 635 km
right ascension of ascending node: 352.8631°
argument of perigee: 238.3811°
revolutions per day: 14.82648969
mean anomaly at epoch: 185.9145°
orbit number at epoch: 46545

The dashed part of the orbit path shows where the satellite is in the earth's shadow,  

DLR